QFA655 YSSY-YPPH

Flight info

Callsign QFA655
Flight time 4h 11m
Altitude 34000
Route SY3/25 KADOM H44 BORLI/N0448F360 Q32 NODEV Q10 MALUP Q158 KABLI
Aircraft A21N/M-SDE2E3FGHIRWXY/LB1

Departure

Time 2026-05-07 10:54
Airport Sydney Kingsford Smith International Airport (YSSY)

Arrival

Time 2026-05-07 15:05
Airport Perth International Airport (YPPH)
Time Latitude Longitude Altitude Speed Heading
2026-05-07 09:44 -33.93159 151.17968 35 ft 0 kts 191°
2026-05-07 10:43 -33.93135 151.17972 35 ft 4 kts 166°
2026-05-07 10:43 -33.93115 151.17965 35 ft 4 kts 177°
2026-05-07 10:44 -33.93095 151.17972 35 ft 4 kts 240°
2026-05-07 10:44 -33.93091 151.18000 35 ft 3 kts 278°
2026-05-07 10:44 -33.93091 151.18004 35 ft 0 kts 279°
2026-05-07 10:47 -33.93090 151.17998 35 ft 3 kts 279°
2026-05-07 10:47 -33.93085 151.17961 35 ft 6 kts 279°
2026-05-07 10:47 -33.93076 151.17895 35 ft 9 kts 280°
2026-05-07 10:48 -33.93063 151.17808 35 ft 12 kts 281°
2026-05-07 10:48 -33.93033 151.17707 35 ft 14 kts 300°
2026-05-07 10:48 -33.93004 151.17591 35 ft 16 kts 268°
2026-05-07 10:48 -33.93092 151.17520 36 ft 17 kts 185°
2026-05-07 10:49 -33.93213 151.17547 35 ft 18 kts 168°
2026-05-07 10:49 -33.93341 151.17579 35 ft 19 kts 169°
2026-05-07 10:49 -33.93476 151.17581 35 ft 20 kts 171°
2026-05-07 10:49 -33.93615 151.17618 35 ft 21 kts 164°
2026-05-07 10:50 -33.93752 151.17685 35 ft 22 kts 167°
2026-05-07 10:50 -33.93840 151.17775 35 ft 19 kts 72°
2026-05-07 10:50 -33.93803 151.17932 35 ft 20 kts 74°
2026-05-07 10:50 -33.93764 151.18098 35 ft 21 kts 74°
2026-05-07 10:51 -33.93723 151.18271 35 ft 22 kts 74°
2026-05-07 10:51 -33.93681 151.18448 35 ft 23 kts 74°
2026-05-07 10:51 -33.93638 151.18627 35 ft 17 kts 73°
2026-05-07 10:51 -33.93606 151.18767 35 ft 18 kts 74°
2026-05-07 10:52 -33.93610 151.18912 35 ft 19 kts 127°
2026-05-07 10:52 -33.93664 151.18942 33 ft 2 kts 165°
2026-05-07 10:52 -33.93739 151.18945 30 ft 16 kts 206°
2026-05-07 10:52 -33.93784 151.18855 31 ft 7 kts 256°
2026-05-07 10:53 -33.93790 151.18829 31 ft 8 kts 255°
2026-05-07 10:53 -33.93824 151.18688 32 ft 44 kts 256°
2026-05-07 10:53 -33.93969 151.18082 34 ft 108 kts 254°
2026-05-07 10:53 -33.94194 151.17139 94 ft 150 kts 256°
2026-05-07 10:54 -33.94456 151.15944 806 ft 148 kts 257°
2026-05-07 10:54 -33.94787 151.14741 1401 ft 155 kts 253°
2026-05-07 10:54 -33.95173 151.13493 1847 ft 165 kts 253°
2026-05-07 10:54 -33.95591 151.12138 2132 ft 181 kts 253°
2026-05-07 10:55 -33.95901 151.10622 2570 ft 193 kts 271°
2026-05-07 10:55 -33.95572 151.09008 3016 ft 208 kts 291°
2026-05-07 10:55 -33.95024 151.07291 3444 ft 230 kts 290°
2026-05-07 10:55 -33.94438 151.05418 3957 ft 247 kts 290°
2026-05-07 10:56 -33.93833 151.03450 4701 ft 253 kts 289°
2026-05-07 10:56 -33.93214 151.01436 5533 ft 257 kts 289°
2026-05-07 10:56 -33.92599 150.99438 6367 ft 260 kts 289°
2026-05-07 10:56 -33.91964 150.97359 7153 ft 263 kts 289°
2026-05-07 10:57 -33.91337 150.95310 7910 ft 266 kts 289°
2026-05-07 10:57 -33.90697 150.93212 8663 ft 269 kts 289°
2026-05-07 10:57 -33.90047 150.91071 9425 ft 273 kts 289°
2026-05-07 10:57 -33.89384 150.88912 10168 ft 276 kts 289°
2026-05-07 10:58 -33.88696 150.86684 10531 ft 293 kts 289°
2026-05-07 10:58 -33.87963 150.84307 10817 ft 312 kts 290°
2026-05-07 10:58 -33.87192 150.81811 11050 ft 331 kts 290°
2026-05-07 10:58 -33.86376 150.79170 11531 ft 341 kts 290°
2026-05-07 10:59 -33.85544 150.76473 12200 ft 345 kts 290°
2026-05-07 10:59 -33.84715 150.73782 12896 ft 348 kts 290°
2026-05-07 10:59 -33.83870 150.71044 13614 ft 351 kts 290°
2026-05-07 10:59 -33.83015 150.68280 14285 ft 354 kts 290°
2026-05-07 11:00 -33.82156 150.65492 14908 ft 357 kts 289°
2026-05-07 11:00 -33.81293 150.62679 15525 ft 360 kts 289°
2026-05-07 11:00 -33.80422 150.59845 16146 ft 363 kts 290°
2026-05-07 11:00 -33.79540 150.56997 16767 ft 365 kts 290°
2026-05-07 11:01 -33.78645 150.54116 17382 ft 368 kts 289°
2026-05-07 11:01 -33.77744 150.51216 17990 ft 372 kts 290°
2026-05-07 11:01 -33.76832 150.48293 18565 ft 375 kts 290°
2026-05-07 11:01 -33.75913 150.45347 19107 ft 378 kts 290°
2026-05-07 11:02 -33.74986 150.42386 19641 ft 380 kts 290°
2026-05-07 11:02 -33.74053 150.39408 20166 ft 382 kts 290°
2026-05-07 11:02 -33.73114 150.36411 20714 ft 384 kts 290°
2026-05-07 11:02 -33.72180 150.33403 21255 ft 385 kts 289°
2026-05-07 11:03 -33.71481 150.30286 21765 ft 388 kts 279°
2026-05-07 11:03 -33.71326 150.27045 22268 ft 391 kts 268°
2026-05-07 11:03 -33.71579 150.23780 22787 ft 394 kts 265°
2026-05-07 11:03 -33.71896 150.20544 23250 ft 396 kts 265°
2026-05-07 11:04 -33.72212 150.17238 23723 ft 399 kts 265°
2026-05-07 11:04 -33.72516 150.13918 24146 ft 401 kts 266°
2026-05-07 11:04 -33.72811 150.10575 24542 ft 403 kts 266°
2026-05-07 11:04 -33.73104 150.07208 24954 ft 404 kts 266°
2026-05-07 11:05 -33.73394 150.03847 25369 ft 405 kts 266°
2026-05-07 11:05 -33.73684 150.00470 25788 ft 407 kts 266°
2026-05-07 11:05 -33.73930 149.97577 26133 ft 408 kts 266°
2026-05-07 11:05 -33.74211 149.94229 26515 ft 410 kts 266°
2026-05-07 11:06 -33.74497 149.90815 26886 ft 411 kts 266°
2026-05-07 11:06 -33.74783 149.87395 27266 ft 413 kts 266°
2026-05-07 11:06 -33.75071 149.83950 27648 ft 414 kts 266°
2026-05-07 11:06 -33.75370 149.80499 28037 ft 416 kts 266°
2026-05-07 11:07 -33.75668 149.77035 28407 ft 417 kts 266°
2026-05-07 11:07 -33.75962 149.73563 28757 ft 419 kts 266°
2026-05-07 11:07 -33.76256 149.70069 29092 ft 420 kts 266°
2026-05-07 11:07 -33.76547 149.66575 29482 ft 420 kts 266°
2026-05-07 11:08 -33.76835 149.63092 29945 ft 418 kts 266°
2026-05-07 11:08 -33.77121 149.59625 30387 ft 416 kts 266°
2026-05-07 11:08 -33.77402 149.56172 30741 ft 414 kts 266°
2026-05-07 11:08 -33.77683 149.52717 31108 ft 412 kts 266°
2026-05-07 11:09 -33.77958 149.49337 31456 ft 410 kts 266°
2026-05-07 11:09 -33.78233 149.45934 31784 ft 409 kts 267°
2026-05-07 11:09 -33.78506 149.42532 32108 ft 408 kts 267°
2026-05-07 11:09 -33.78773 149.39140 32413 ft 407 kts 267°
2026-05-07 11:10 -33.79046 149.35769 32717 ft 405 kts 267°
2026-05-07 11:10 -33.79323 149.32394 33005 ft 404 kts 267°
2026-05-07 11:10 -33.79595 149.29037 33277 ft 403 kts 267°
2026-05-07 11:10 -33.79865 149.25679 33544 ft 402 kts 267°
2026-05-07 11:11 -33.80131 149.22337 33817 ft 401 kts 267°
2026-05-07 11:11 -33.80306 149.20125 33980 ft 401 kts 267°
2026-05-07 11:11 -33.80570 149.16793 34228 ft 400 kts 267°
2026-05-07 11:11 -33.80832 149.13466 34329 ft 399 kts 267°
2026-05-07 11:12 -33.81351 149.06829 34318 ft 398 kts 267°
2026-05-07 11:12 -33.81865 149.00207 34316 ft 398 kts 267°
2026-05-07 11:13 -33.82379 148.93561 34311 ft 398 kts 267°
2026-05-07 11:13 -33.82888 148.86922 34312 ft 398 kts 267°
2026-05-07 11:14 -33.83391 148.80316 34310 ft 399 kts 267°
2026-05-07 11:14 -33.83892 148.73679 34312 ft 399 kts 267°
2026-05-07 11:15 -33.84395 148.67027 34312 ft 399 kts 266°
2026-05-07 11:15 -33.85325 148.60425 34307 ft 401 kts 261°
2026-05-07 11:16 -33.86436 148.53858 34308 ft 401 kts 261°
2026-05-07 11:16 -33.87534 148.47278 34313 ft 401 kts 261°
2026-05-07 11:17 -33.88617 148.40741 34314 ft 401 kts 261°
2026-05-07 11:17 -33.89706 148.34149 34319 ft 401 kts 261°
2026-05-07 11:18 -33.90789 148.27560 34317 ft 401 kts 261°
2026-05-07 11:18 -33.91871 148.20962 34322 ft 402 kts 261°
2026-05-07 11:19 -33.92949 148.14365 34319 ft 402 kts 261°
2026-05-07 11:19 -33.94029 148.07751 34324 ft 402 kts 261°
2026-05-07 11:20 -33.95092 148.01138 34320 ft 402 kts 261°
2026-05-07 11:20 -33.96150 147.94559 34323 ft 403 kts 261°
2026-05-07 11:21 -33.97222 147.87930 34326 ft 403 kts 261°
2026-05-07 11:21 -33.98287 147.81305 34328 ft 403 kts 261°
2026-05-07 11:22 -33.99347 147.74670 34330 ft 403 kts 261°
2026-05-07 11:22 -34.00405 147.68020 34329 ft 403 kts 261°
2026-05-07 11:23 -34.01459 147.61378 34334 ft 403 kts 261°
2026-05-07 11:23 -34.02512 147.54783 34336 ft 403 kts 261°
2026-05-07 11:24 -34.03549 147.48143 34334 ft 403 kts 261°
2026-05-07 11:24 -34.04593 147.41501 34336 ft 403 kts 261°
2026-05-07 11:25 -34.05643 147.34817 34338 ft 403 kts 261°
2026-05-07 11:25 -34.06669 147.28207 34340 ft 403 kts 261°
2026-05-07 11:26 -34.07704 147.21556 34342 ft 403 kts 261°
2026-05-07 11:26 -34.08729 147.14915 34341 ft 403 kts 261°
2026-05-07 11:27 -34.09753 147.08264 34342 ft 402 kts 261°
2026-05-07 11:27 -34.10763 147.01665 34346 ft 402 kts 261°
2026-05-07 11:28 -34.11784 146.95030 34343 ft 402 kts 261°
2026-05-07 11:28 -34.12793 146.88395 34349 ft 402 kts 261°
2026-05-07 11:29 -34.13810 146.81759 34351 ft 401 kts 261°
2026-05-07 11:29 -34.14816 146.75124 34350 ft 401 kts 261°
2026-05-07 11:30 -34.15805 146.68530 34353 ft 401 kts 261°
2026-05-07 11:30 -34.16803 146.61906 34353 ft 401 kts 261°
2026-05-07 11:31 -34.17789 146.55280 34355 ft 401 kts 261°
2026-05-07 11:31 -34.18778 146.48647 34353 ft 401 kts 261°
2026-05-07 11:32 -34.20259 146.38712 34361 ft 401 kts 261°
2026-05-07 11:33 -34.21233 146.32082 34357 ft 401 kts 261°
2026-05-07 11:33 -34.22212 146.25404 34335 ft 408 kts 258°
2026-05-07 11:34 -34.23219 146.18602 34360 ft 412 kts 258°
2026-05-07 11:34 -34.24207 146.11774 34364 ft 412 kts 258°
2026-05-07 11:35 -34.25021 146.04954 34367 ft 414 kts 264°
2026-05-07 11:35 -34.25283 145.97993 34367 ft 415 kts 265°
2026-05-07 11:36 -34.25508 145.91019 34366 ft 414 kts 265°
2026-05-07 11:36 -34.25721 145.84054 34368 ft 415 kts 265°
2026-05-07 11:37 -34.25936 145.77085 34369 ft 415 kts 265°
2026-05-07 11:37 -34.26144 145.70113 34380 ft 415 kts 265°
2026-05-07 11:38 -34.26346 145.63185 34378 ft 415 kts 265°
2026-05-07 11:38 -34.26549 145.56222 34374 ft 415 kts 265°
2026-05-07 11:39 -34.26743 145.49245 34373 ft 415 kts 265°
2026-05-07 11:39 -34.26935 145.42281 34375 ft 415 kts 265°
2026-05-07 11:40 -34.27135 145.35304 34379 ft 415 kts 265°
2026-05-07 11:40 -34.27326 145.28334 34377 ft 415 kts 265°
2026-05-07 11:41 -34.27514 145.21350 34381 ft 415 kts 265°
2026-05-07 11:41 -34.27688 145.14366 34382 ft 416 kts 266°
2026-05-07 11:42 -34.27854 145.07370 34385 ft 416 kts 266°
2026-05-07 11:42 -34.28041 145.00380 34386 ft 416 kts 266°
2026-05-07 11:43 -34.28204 144.93390 34390 ft 416 kts 266°
2026-05-07 11:43 -34.28366 144.86386 34391 ft 416 kts 266°
2026-05-07 11:44 -34.28526 144.79386 34388 ft 417 kts 266°
2026-05-07 11:44 -34.28682 144.72407 34403 ft 417 kts 266°
2026-05-07 11:45 -34.28834 144.65395 34395 ft 417 kts 266°
2026-05-07 11:45 -34.28971 144.58374 34398 ft 417 kts 266°
2026-05-07 11:46 -34.29135 144.51364 34400 ft 418 kts 266°
2026-05-07 11:46 -34.29272 144.44329 34406 ft 418 kts 266°
2026-05-07 11:47 -34.29410 144.37290 34398 ft 419 kts 266°
2026-05-07 11:47 -34.29535 144.30243 34398 ft 419 kts 266°
2026-05-07 11:48 -34.29654 144.23193 34400 ft 419 kts 266°
2026-05-07 11:48 -34.29792 144.16138 34408 ft 419 kts 266°
2026-05-07 11:49 -34.29918 144.09130 34403 ft 420 kts 267°
2026-05-07 11:49 -34.30021 144.02020 34398 ft 420 kts 267°
2026-05-07 11:50 -34.30141 143.95005 34403 ft 420 kts 267°
2026-05-07 11:50 -34.30253 143.87943 34410 ft 420 kts 267°
2026-05-07 11:51 -34.30348 143.80871 34412 ft 420 kts 267°
2026-05-07 11:51 -34.30440 143.73801 34409 ft 420 kts 267°
2026-05-07 11:52 -34.30539 143.66743 34417 ft 420 kts 267°
2026-05-07 11:52 -34.30629 143.59677 34413 ft 420 kts 267°
2026-05-07 11:53 -34.30735 143.52604 34415 ft 420 kts 267°
2026-05-07 11:53 -34.30819 143.45528 34418 ft 421 kts 268°
2026-05-07 11:54 -34.30886 143.38486 34416 ft 421 kts 268°
2026-05-07 11:54 -34.30966 143.31405 34422 ft 421 kts 268°
2026-05-07 11:55 -34.31040 143.24313 34425 ft 422 kts 268°
2026-05-07 11:55 -34.31111 143.17206 34422 ft 422 kts 268°
2026-05-07 11:56 -34.31156 143.11297 34421 ft 422 kts 268°
2026-05-07 11:56 -34.31242 143.04187 34424 ft 423 kts 268°
2026-05-07 11:57 -34.31306 142.95911 34431 ft 423 kts 268°
2026-05-07 11:57 -34.31331 142.89949 34431 ft 423 kts 268°
2026-05-07 11:58 -34.31375 142.82835 34433 ft 423 kts 268°
2026-05-07 11:58 -34.31423 142.75759 34436 ft 423 kts 268°
2026-05-07 11:59 -34.31460 142.68639 34432 ft 423 kts 269°
2026-05-07 11:59 -34.31490 142.61501 34433 ft 423 kts 268°
2026-05-07 12:00 -34.31537 142.54378 34432 ft 424 kts 268°
2026-05-07 12:00 -34.31575 142.47242 34433 ft 424 kts 268°
2026-05-07 12:01 -34.31627 142.40111 34443 ft 424 kts 268°
2026-05-07 12:01 -34.31641 142.33023 34451 ft 424 kts 269°
2026-05-07 12:02 -34.31653 142.25884 34444 ft 425 kts 269°
2026-05-07 12:02 -34.31684 142.18739 34450 ft 425 kts 269°
2026-05-07 12:03 -34.31695 142.11577 34451 ft 425 kts 269°
2026-05-07 12:03 -34.31689 142.04415 34444 ft 425 kts 269°
2026-05-07 12:04 -34.31644 141.97257 34459 ft 426 kts 269°
2026-05-07 12:04 -34.31651 141.90092 34450 ft 426 kts 269°
2026-05-07 12:05 -34.31647 141.82933 34452 ft 426 kts 269°
2026-05-07 12:05 -34.31629 141.75769 34463 ft 426 kts 269°
2026-05-07 12:06 -34.31611 141.68605 34446 ft 426 kts 269°
2026-05-07 12:06 -34.31613 141.61426 34449 ft 427 kts 269°
2026-05-07 12:07 -34.31604 141.54292 34458 ft 427 kts 269°
2026-05-07 12:07 -34.31578 141.47104 34463 ft 427 kts 269°
2026-05-07 12:08 -34.31535 141.39916 34459 ft 427 kts 269°
2026-05-07 12:08 -34.31491 141.32719 34468 ft 427 kts 270°
2026-05-07 12:09 -34.31434 141.25529 34465 ft 428 kts 270°
2026-05-07 12:09 -34.31380 141.18337 34468 ft 428 kts 270°
2026-05-07 12:10 -34.31322 141.11137 34463 ft 428 kts 270°
2026-05-07 12:10 -34.31268 141.03981 34460 ft 428 kts 270°
2026-05-07 12:11 -34.31207 140.96776 34466 ft 428 kts 270°
2026-05-07 12:11 -34.31147 140.89564 34472 ft 429 kts 270°
2026-05-07 12:12 -34.31074 140.82347 34477 ft 428 kts 270°
2026-05-07 12:12 -34.30998 140.75148 34472 ft 428 kts 270°
2026-05-07 12:13 -34.30927 140.67944 34473 ft 428 kts 270°
2026-05-07 12:13 -34.30846 140.60745 34478 ft 428 kts 270°
2026-05-07 12:14 -34.30765 140.53534 34480 ft 428 kts 270°
2026-05-07 12:14 -34.30680 140.46372 34484 ft 428 kts 270°
2026-05-07 12:15 -34.30595 140.39164 34482 ft 429 kts 270°
2026-05-07 12:15 -34.30492 140.31959 34486 ft 429 kts 270°
2026-05-07 12:16 -34.30392 140.24750 34480 ft 429 kts 270°
2026-05-07 12:16 -34.30286 140.17538 34485 ft 429 kts 270°
2026-05-07 12:17 -34.30174 140.10319 34483 ft 429 kts 270°
2026-05-07 12:17 -34.30065 140.03101 34487 ft 429 kts 271°
2026-05-07 12:18 -34.29937 139.95872 34485 ft 430 kts 271°
2026-05-07 12:18 -34.29811 139.88638 34491 ft 430 kts 271°
2026-05-07 12:19 -34.29693 139.81412 34494 ft 430 kts 271°
2026-05-07 12:19 -34.29561 139.74227 34495 ft 430 kts 271°
2026-05-07 12:20 -34.29423 139.66987 34496 ft 430 kts 271°
2026-05-07 12:20 -34.29290 139.59757 34502 ft 430 kts 271°
2026-05-07 12:21 -34.29158 139.52524 34504 ft 430 kts 271°
2026-05-07 12:21 -34.29007 139.45295 34504 ft 430 kts 271°
2026-05-07 12:22 -34.28860 139.38102 34506 ft 430 kts 271°
2026-05-07 12:22 -34.28692 139.30875 34510 ft 430 kts 271°
2026-05-07 12:23 -34.28518 139.23640 34514 ft 430 kts 271°
2026-05-07 12:23 -34.28355 139.16405 34513 ft 431 kts 271°
2026-05-07 12:24 -34.28191 139.09171 34516 ft 430 kts 271°
2026-05-07 12:24 -34.28014 139.01939 34519 ft 430 kts 271°
2026-05-07 12:25 -34.27848 138.94710 34522 ft 430 kts 271°
2026-05-07 12:25 -34.27670 138.87462 34520 ft 431 kts 271°
2026-05-07 12:26 -34.27479 138.80222 34526 ft 431 kts 271°
2026-05-07 12:26 -34.27273 138.72968 34528 ft 432 kts 271°
2026-05-07 12:27 -34.27086 138.65709 34525 ft 432 kts 271°
2026-05-07 12:27 -34.26893 138.58502 34524 ft 432 kts 272°
2026-05-07 12:28 -34.26686 138.51247 34527 ft 432 kts 272°
2026-05-07 12:28 -34.26480 138.43973 34524 ft 432 kts 272°
2026-05-07 12:29 -34.26261 138.36709 34524 ft 433 kts 272°
2026-05-07 12:29 -34.26046 138.29441 34533 ft 433 kts 272°
2026-05-07 12:30 -34.25825 138.22164 34527 ft 433 kts 272°
2026-05-07 12:30 -34.25603 138.14907 34527 ft 431 kts 272°
2026-05-07 12:31 -34.25377 138.07666 34532 ft 431 kts 272°
2026-05-07 12:31 -34.25142 138.00420 34531 ft 431 kts 272°
2026-05-07 12:32 -34.24911 137.93184 34533 ft 432 kts 272°
2026-05-07 12:32 -34.24655 137.85919 34539 ft 433 kts 272°
2026-05-07 12:33 -34.24286 137.75016 34540 ft 433 kts 272°
2026-05-07 12:33 -34.24022 137.67730 34540 ft 434 kts 272°
2026-05-07 12:34 -34.23772 137.60486 34540 ft 434 kts 272°
2026-05-07 12:34 -34.23509 137.53215 34546 ft 433 kts 272°
2026-05-07 12:35 -34.23239 137.45937 34542 ft 433 kts 272°
2026-05-07 12:35 -34.22966 137.38666 34544 ft 433 kts 272°
2026-05-07 12:36 -34.22691 137.31396 34544 ft 432 kts 272°
2026-05-07 12:36 -34.22402 137.24133 34542 ft 433 kts 272°
2026-05-07 12:37 -34.22125 137.16859 34544 ft 433 kts 272°
2026-05-07 12:37 -34.21837 137.09573 34548 ft 434 kts 273°
2026-05-07 12:38 -34.21540 137.02293 34547 ft 434 kts 273°
2026-05-07 12:38 -34.21245 136.94996 34551 ft 435 kts 272°
2026-05-07 12:39 -34.20952 136.87688 34551 ft 436 kts 273°
2026-05-07 12:39 -34.20646 136.80430 34550 ft 436 kts 273°
2026-05-07 12:40 -34.20329 136.73111 34551 ft 436 kts 273°
2026-05-07 12:40 -34.20009 136.65799 34550 ft 436 kts 273°
2026-05-07 12:41 -34.19693 136.58469 34559 ft 437 kts 273°
2026-05-07 12:41 -34.19418 136.52349 34563 ft 437 kts 273°
2026-05-07 12:42 -34.19040 136.43812 34555 ft 438 kts 273°
2026-05-07 12:42 -34.18762 136.37692 34560 ft 439 kts 273°
2026-05-07 12:43 -34.18413 136.30333 34567 ft 439 kts 273°
2026-05-07 12:43 -34.18072 136.22966 34568 ft 439 kts 273°
2026-05-07 12:44 -34.17729 136.15599 34564 ft 439 kts 273°
2026-05-07 12:44 -34.17373 136.08218 34572 ft 440 kts 274°
2026-05-07 12:45 -34.17020 136.00883 34573 ft 440 kts 274°
2026-05-07 12:45 -34.16654 135.93497 34569 ft 440 kts 273°
2026-05-07 12:46 -34.16292 135.86141 34577 ft 440 kts 274°
2026-05-07 12:46 -34.15921 135.78763 34580 ft 440 kts 273°
2026-05-07 12:47 -34.15505 135.71366 34579 ft 440 kts 274°
2026-05-07 12:47 -34.15108 135.64017 34581 ft 441 kts 274°
2026-05-07 12:48 -34.14721 135.56631 34582 ft 441 kts 274°
2026-05-07 12:48 -34.14340 135.49243 34586 ft 441 kts 274°
2026-05-07 12:49 -34.13940 135.41843 34579 ft 441 kts 274°
2026-05-07 12:49 -34.13545 135.34446 34583 ft 441 kts 274°
2026-05-07 12:50 -34.13165 135.27096 34584 ft 441 kts 273°
2026-05-07 12:50 -34.12826 135.19686 34585 ft 441 kts 273°
2026-05-07 12:51 -34.12465 135.12291 34585 ft 442 kts 274°
2026-05-07 12:51 -34.12092 135.04866 34583 ft 442 kts 273°
2026-05-07 12:52 -34.11701 134.97514 34587 ft 442 kts 274°
2026-05-07 12:52 -34.11291 134.90104 34584 ft 442 kts 274°
2026-05-07 12:53 -34.10882 134.82689 34585 ft 442 kts 274°
2026-05-07 12:53 -34.10484 134.75321 34585 ft 442 kts 274°
2026-05-07 12:54 -34.10076 134.67902 34586 ft 442 kts 274°
2026-05-07 12:54 -34.09672 134.60492 34588 ft 443 kts 274°
2026-05-07 12:55 -34.09267 134.53053 34589 ft 443 kts 274°
2026-05-07 12:55 -34.08840 134.45669 34593 ft 443 kts 274°
2026-05-07 12:56 -34.08417 134.38248 34594 ft 443 kts 274°
2026-05-07 12:56 -34.07992 134.30821 34598 ft 443 kts 274°
2026-05-07 12:57 -34.07553 134.23396 34598 ft 444 kts 274°
2026-05-07 12:57 -34.07120 134.15956 34598 ft 444 kts 274°
2026-05-07 12:58 -34.06680 134.08512 34597 ft 445 kts 274°
2026-05-07 12:58 -34.06230 134.01113 34598 ft 445 kts 274°
2026-05-07 12:59 -34.05778 133.93660 34597 ft 446 kts 274°
2026-05-07 12:59 -34.05325 133.86201 34600 ft 446 kts 274°
2026-05-07 13:00 -34.04870 133.78729 34596 ft 446 kts 274°
2026-05-07 13:00 -34.04414 133.71306 34599 ft 446 kts 274°
2026-05-07 13:01 -34.03941 133.63834 34603 ft 447 kts 274°
2026-05-07 13:01 -34.03456 133.56365 34599 ft 447 kts 274°
2026-05-07 13:02 -34.02980 133.48892 34601 ft 447 kts 274°
2026-05-07 13:02 -34.02524 133.41415 34606 ft 447 kts 274°
2026-05-07 13:03 -34.02036 133.33921 34609 ft 448 kts 274°
2026-05-07 13:03 -34.01539 133.26435 34610 ft 449 kts 274°
2026-05-07 13:04 -34.01027 133.18933 34613 ft 449 kts 274°
2026-05-07 13:04 -34.00530 133.11434 34612 ft 449 kts 274°
2026-05-07 13:05 -34.00024 133.03921 34615 ft 449 kts 275°
2026-05-07 13:05 -33.99518 132.96460 34615 ft 450 kts 274°
2026-05-07 13:06 -33.98998 132.88895 34613 ft 450 kts 275°
2026-05-07 13:06 -33.98473 132.81377 34615 ft 450 kts 275°
2026-05-07 13:07 -33.97943 132.73895 34617 ft 451 kts 275°
2026-05-07 13:07 -33.97406 132.66370 34616 ft 451 kts 275°
2026-05-07 13:08 -33.96870 132.58842 34618 ft 451 kts 275°
2026-05-07 13:08 -33.96327 132.51308 34621 ft 452 kts 275°
2026-05-07 13:09 -33.95778 132.43760 34622 ft 452 kts 275°
2026-05-07 13:09 -33.95228 132.36207 34618 ft 453 kts 275°
2026-05-07 13:10 -33.94664 132.28662 34624 ft 455 kts 275°
2026-05-07 13:10 -33.94097 132.21096 34620 ft 454 kts 275°
2026-05-07 13:11 -33.93524 132.13511 34622 ft 454 kts 275°
2026-05-07 13:11 -33.92946 132.05936 34622 ft 454 kts 275°
2026-05-07 13:12 -33.92368 131.98346 34621 ft 454 kts 275°
2026-05-07 13:12 -33.91783 131.90772 34618 ft 454 kts 275°
2026-05-07 13:13 -33.91195 131.83251 34624 ft 454 kts 275°
2026-05-07 13:13 -33.90598 131.75671 34629 ft 454 kts 275°
2026-05-07 13:14 -33.89999 131.68081 34629 ft 454 kts 275°
2026-05-07 13:14 -33.89383 131.60502 34628 ft 454 kts 276°
2026-05-07 13:15 -33.88772 131.52942 34629 ft 462 kts 275°
2026-05-07 13:15 -33.88148 131.45159 34633 ft 471 kts 275°
2026-05-07 13:16 -33.87501 131.37301 34631 ft 471 kts 275°
2026-05-07 13:16 -33.86847 131.29454 34632 ft 471 kts 276°
2026-05-07 13:17 -33.86185 131.21595 34627 ft 472 kts 276°
2026-05-07 13:17 -33.85516 131.13744 34631 ft 472 kts 276°
2026-05-07 13:18 -33.84847 131.05922 34633 ft 472 kts 276°
2026-05-07 13:18 -33.84168 130.98062 34633 ft 472 kts 276°
2026-05-07 13:19 -33.83486 130.90199 34635 ft 472 kts 276°
2026-05-07 13:19 -33.82808 130.82376 34636 ft 472 kts 276°
2026-05-07 13:20 -33.82127 130.74522 34635 ft 472 kts 276°
2026-05-07 13:20 -33.81442 130.66651 34634 ft 473 kts 276°
2026-05-07 13:21 -33.80738 130.58785 34634 ft 472 kts 276°
2026-05-07 13:21 -33.80037 130.50933 34633 ft 472 kts 276°
2026-05-07 13:22 -33.79335 130.43128 34638 ft 472 kts 276°
2026-05-07 13:22 -33.78621 130.35265 34641 ft 472 kts 276°
2026-05-07 13:23 -33.77902 130.27410 34641 ft 473 kts 276°
2026-05-07 13:23 -33.77180 130.19546 34645 ft 473 kts 276°
2026-05-07 13:24 -33.76450 130.11682 34640 ft 473 kts 276°
2026-05-07 13:24 -33.75716 130.03812 34641 ft 473 kts 276°
2026-05-07 13:25 -33.74979 129.96009 34641 ft 473 kts 276°
2026-05-07 13:25 -33.74234 129.88133 34643 ft 473 kts 276°
2026-05-07 13:26 -33.73488 129.80304 34644 ft 473 kts 276°
2026-05-07 13:26 -33.72730 129.72441 34640 ft 474 kts 276°
2026-05-07 13:27 -33.71970 129.64582 34639 ft 474 kts 276°
2026-05-07 13:27 -33.71203 129.56712 34642 ft 474 kts 276°
2026-05-07 13:28 -33.70566 129.50183 34644 ft 474 kts 276°
2026-05-07 13:28 -33.69793 129.42314 34647 ft 474 kts 276°
2026-05-07 13:29 -33.69012 129.34451 34645 ft 474 kts 277°
2026-05-07 13:29 -33.68224 129.26582 34645 ft 474 kts 277°
2026-05-07 13:30 -33.67431 129.18726 34647 ft 474 kts 277°
2026-05-07 13:30 -33.66632 129.10855 34643 ft 474 kts 277°
2026-05-07 13:31 -33.65838 129.03026 34646 ft 474 kts 277°
2026-05-07 13:31 -33.65037 128.95161 34648 ft 474 kts 277°
2026-05-07 13:32 -33.64216 128.87354 34647 ft 474 kts 277°
2026-05-07 13:32 -33.63391 128.79493 34649 ft 474 kts 277°
2026-05-07 13:33 -33.62570 128.71625 34644 ft 474 kts 277°
2026-05-07 13:33 -33.61744 128.63766 34651 ft 475 kts 277°
2026-05-07 13:34 -33.60499 128.52021 34653 ft 474 kts 277°
2026-05-07 13:35 -33.59662 128.44159 34652 ft 475 kts 277°
2026-05-07 13:35 -33.58822 128.36297 34649 ft 475 kts 277°
2026-05-07 13:36 -33.57971 128.28483 34650 ft 475 kts 277°
2026-05-07 13:36 -33.57117 128.20614 34646 ft 475 kts 277°
2026-05-07 13:37 -33.56253 128.12740 34648 ft 475 kts 277°
2026-05-07 13:37 -33.55400 128.04937 34651 ft 475 kts 277°
2026-05-07 13:38 -33.54532 127.97069 34653 ft 475 kts 277°
2026-05-07 13:38 -33.53670 127.89199 34651 ft 475 kts 277°
2026-05-07 13:39 -33.52799 127.81385 34655 ft 475 kts 277°
2026-05-07 13:39 -33.51920 127.73515 34649 ft 475 kts 277°
2026-05-07 13:40 -33.51042 127.65650 34649 ft 476 kts 277°
2026-05-07 13:40 -33.50154 127.57823 34649 ft 476 kts 277°
2026-05-07 13:41 -33.49261 127.49968 34649 ft 476 kts 277°
2026-05-07 13:41 -33.48358 127.42101 34652 ft 476 kts 277°
2026-05-07 13:42 -33.47464 127.34287 34652 ft 476 kts 277°
2026-05-07 13:42 -33.46562 127.26419 34647 ft 476 kts 277°
2026-05-07 13:43 -33.45654 127.18554 34646 ft 476 kts 277°
2026-05-07 13:43 -33.44737 127.10740 34650 ft 476 kts 277°
2026-05-07 13:44 -33.43808 127.02881 34651 ft 476 kts 277°
2026-05-07 13:44 -33.42876 126.95023 34649 ft 477 kts 277°
2026-05-07 13:45 -33.41948 126.87153 34649 ft 477 kts 277°
2026-05-07 13:45 -33.41017 126.79327 34646 ft 477 kts 277°
2026-05-07 13:46 -33.40064 126.71459 34647 ft 477 kts 277°
2026-05-07 13:46 -33.39127 126.63583 34649 ft 477 kts 277°
2026-05-07 13:47 -33.38483 126.55716 34649 ft 477 kts 273°
2026-05-07 13:47 -33.37952 126.47774 34645 ft 477 kts 273°
2026-05-07 13:48 -33.37400 126.39915 34646 ft 477 kts 273°
2026-05-07 13:48 -33.36835 126.32005 34647 ft 477 kts 273°
2026-05-07 13:49 -33.36253 126.24086 34648 ft 477 kts 273°
2026-05-07 13:49 -33.35670 126.16176 34646 ft 477 kts 273°
2026-05-07 13:50 -33.35087 126.08266 34646 ft 477 kts 273°
2026-05-07 13:50 -33.34501 126.00349 34644 ft 477 kts 273°
2026-05-07 13:51 -33.33912 125.92492 34645 ft 477 kts 273°
2026-05-07 13:51 -33.33311 125.84571 34648 ft 477 kts 273°
2026-05-07 13:52 -33.32715 125.76709 34646 ft 477 kts 274°
2026-05-07 13:52 -33.32106 125.68797 34644 ft 477 kts 273°
2026-05-07 13:53 -33.31495 125.60929 34639 ft 477 kts 274°
2026-05-07 13:53 -33.30874 125.53029 34643 ft 477 kts 274°
2026-05-07 13:54 -33.30249 125.45109 34640 ft 477 kts 274°
2026-05-07 13:54 -33.29621 125.37203 34642 ft 477 kts 274°
2026-05-07 13:55 -33.28991 125.29345 34644 ft 477 kts 274°
2026-05-07 13:55 -33.28350 125.21427 34643 ft 477 kts 274°
2026-05-07 13:56 -33.27708 125.13557 34641 ft 477 kts 274°
2026-05-07 13:56 -33.27062 125.05695 34643 ft 477 kts 274°
2026-05-07 13:57 -33.26410 124.97804 34642 ft 477 kts 274°
2026-05-07 13:57 -33.25753 124.89905 34640 ft 477 kts 274°
2026-05-07 13:58 -33.25085 124.82003 34638 ft 477 kts 274°
2026-05-07 13:58 -33.24417 124.74142 34641 ft 477 kts 274°
2026-05-07 13:59 -33.23751 124.66249 34640 ft 477 kts 274°
2026-05-07 13:59 -33.23074 124.58353 34638 ft 477 kts 274°
2026-05-07 14:00 -33.22387 124.50452 34634 ft 477 kts 274°
2026-05-07 14:00 -33.21678 124.42606 34633 ft 477 kts 274°
2026-05-07 14:01 -33.20977 124.34696 34632 ft 477 kts 274°
2026-05-07 14:01 -33.20285 124.26859 34632 ft 478 kts 274°
2026-05-07 14:02 -33.19594 124.18962 34632 ft 477 kts 274°
2026-05-07 14:02 -33.18890 124.11080 34631 ft 477 kts 274°
2026-05-07 14:03 -33.18167 124.03185 34635 ft 478 kts 274°
2026-05-07 14:03 -33.17448 123.95296 34637 ft 478 kts 274°
2026-05-07 14:04 -33.16726 123.87459 34632 ft 477 kts 274°
2026-05-07 14:04 -33.15997 123.79588 34630 ft 477 kts 274°
2026-05-07 14:05 -33.15263 123.71703 34636 ft 478 kts 274°
2026-05-07 14:05 -33.14525 123.63813 34640 ft 478 kts 275°
2026-05-07 14:06 -33.13788 123.55925 34643 ft 477 kts 274°
2026-05-07 14:06 -33.13038 123.48067 34644 ft 477 kts 275°
2026-05-07 14:07 -33.12289 123.40213 34637 ft 476 kts 275°
2026-05-07 14:07 -33.11536 123.32403 34637 ft 476 kts 275°
2026-05-07 14:08 -33.10772 123.24553 34637 ft 476 kts 275°
2026-05-07 14:08 -33.10004 123.16703 34639 ft 476 kts 275°
2026-05-07 14:09 -33.09245 123.08924 34641 ft 475 kts 275°
2026-05-07 14:09 -33.08473 123.01082 34643 ft 475 kts 275°
2026-05-07 14:10 -33.07689 122.93252 34635 ft 474 kts 275°
2026-05-07 14:10 -33.06911 122.85444 34643 ft 474 kts 275°
2026-05-07 14:11 -33.06126 122.77672 34643 ft 474 kts 275°
2026-05-07 14:11 -33.05340 122.69860 34633 ft 474 kts 275°
2026-05-07 14:12 -33.04545 122.62100 34653 ft 473 kts 275°
2026-05-07 14:12 -33.03736 122.54304 34637 ft 473 kts 275°
2026-05-07 14:13 -33.02929 122.46503 34632 ft 473 kts 275°
2026-05-07 14:13 -33.02123 122.38720 34631 ft 473 kts 275°
2026-05-07 14:14 -33.01311 122.30996 34627 ft 472 kts 275°
2026-05-07 14:14 -33.00500 122.23224 34636 ft 472 kts 275°
2026-05-07 14:15 -32.99813 122.16750 34619 ft 472 kts 275°
2026-05-07 14:15 -32.98988 122.08998 34636 ft 472 kts 275°
2026-05-07 14:16 -32.98157 122.01232 34627 ft 472 kts 275°
2026-05-07 14:16 -32.97328 121.93520 34634 ft 472 kts 275°
2026-05-07 14:17 -32.96485 121.85737 34618 ft 474 kts 275°
2026-05-07 14:17 -32.95645 121.77949 34622 ft 474 kts 275°
2026-05-07 14:18 -32.94786 121.70172 34616 ft 473 kts 276°
2026-05-07 14:18 -32.93926 121.62389 34613 ft 473 kts 276°
2026-05-07 14:19 -32.93069 121.54619 34620 ft 473 kts 276°
2026-05-07 14:19 -32.92205 121.46887 34614 ft 473 kts 276°
2026-05-07 14:20 -32.91334 121.39128 34608 ft 473 kts 276°
2026-05-07 14:20 -32.90462 121.31367 34616 ft 472 kts 276°
2026-05-07 14:21 -32.89584 121.23660 34609 ft 472 kts 276°
2026-05-07 14:21 -32.88694 121.15906 34605 ft 472 kts 276°
2026-05-07 14:22 -32.87806 121.08153 34598 ft 472 kts 276°
2026-05-07 14:22 -32.86929 121.00460 34599 ft 472 kts 276°
2026-05-07 14:23 -32.86024 120.92725 34600 ft 471 kts 276°
2026-05-07 14:23 -32.85131 120.84999 34599 ft 471 kts 276°
2026-05-07 14:24 -32.84217 120.77274 34601 ft 470 kts 276°
2026-05-07 14:24 -32.83315 120.69607 34598 ft 470 kts 276°
2026-05-07 14:25 -32.82397 120.61907 34596 ft 470 kts 276°
2026-05-07 14:25 -32.81480 120.54193 34600 ft 470 kts 276°
2026-05-07 14:26 -32.80567 120.46533 34598 ft 470 kts 276°
2026-05-07 14:26 -32.79636 120.38848 34594 ft 469 kts 276°
2026-05-07 14:27 -32.78700 120.31164 34591 ft 469 kts 276°
2026-05-07 14:27 -32.77762 120.23477 34593 ft 469 kts 276°
2026-05-07 14:28 -32.76843 120.15862 34593 ft 469 kts 277°
2026-05-07 14:28 -32.75904 120.08191 34594 ft 469 kts 277°
2026-05-07 14:29 -32.74961 120.00528 34590 ft 469 kts 277°
2026-05-07 14:29 -32.73997 119.92868 34584 ft 468 kts 277°
2026-05-07 14:30 -32.73040 119.85242 34587 ft 468 kts 277°
2026-05-07 14:30 -32.72079 119.77568 34584 ft 469 kts 277°
2026-05-07 14:31 -32.71124 119.69956 34581 ft 468 kts 277°
2026-05-07 14:31 -32.70149 119.62302 34585 ft 468 kts 277°
2026-05-07 14:32 -32.69172 119.54643 34575 ft 468 kts 277°
2026-05-07 14:32 -32.68194 119.46998 34580 ft 468 kts 277°
2026-05-07 14:33 -32.67214 119.39402 34578 ft 468 kts 277°
2026-05-07 14:33 -32.66239 119.31769 34572 ft 468 kts 277°
2026-05-07 14:34 -32.65234 119.24123 34572 ft 468 kts 277°
2026-05-07 14:34 -32.64240 119.16522 34572 ft 468 kts 277°
2026-05-07 14:35 -32.63242 119.08884 34574 ft 468 kts 277°
2026-05-07 14:35 -32.62236 119.01239 34569 ft 469 kts 277°
2026-05-07 14:36 -32.61229 118.93602 34566 ft 468 kts 277°
2026-05-07 14:36 -32.60212 118.85962 34563 ft 468 kts 277°
2026-05-07 14:37 -32.59230 118.78363 34559 ft 468 kts 277°
2026-05-07 14:37 -32.57705 118.66901 34559 ft 468 kts 278°
2026-05-07 14:38 -32.56669 118.59258 34556 ft 468 kts 278°
2026-05-07 14:38 -32.55641 118.51673 34555 ft 468 kts 278°
2026-05-07 14:39 -32.54573 118.44047 34555 ft 469 kts 278°
2026-05-07 14:39 -32.53496 118.36413 34554 ft 469 kts 278°
2026-05-07 14:40 -32.52443 118.28794 34552 ft 468 kts 278°
2026-05-07 14:40 -32.51389 118.21213 34551 ft 469 kts 278°
2026-05-07 14:41 -32.50325 118.13592 34550 ft 469 kts 278°
2026-05-07 14:41 -32.49264 118.05948 34547 ft 469 kts 278°
2026-05-07 14:42 -32.48186 117.98317 34545 ft 469 kts 278°
2026-05-07 14:42 -32.47116 117.90745 34540 ft 469 kts 278°
2026-05-07 14:43 -32.46036 117.83133 34543 ft 469 kts 278°
2026-05-07 14:43 -32.44953 117.75507 34538 ft 464 kts 278°
2026-05-07 14:44 -32.44421 117.71756 34154 ft 462 kts 278°
2026-05-07 14:44 -32.43884 117.67979 33839 ft 465 kts 278°
2026-05-07 14:44 -32.43375 117.64270 33145 ft 459 kts 278°
2026-05-07 14:44 -32.42859 117.60515 32163 ft 462 kts 279°
2026-05-07 14:45 -32.42329 117.56740 31265 ft 464 kts 279°
2026-05-07 14:45 -32.41790 117.52963 30304 ft 467 kts 279°
2026-05-07 14:45 -32.41250 117.49210 29223 ft 470 kts 279°
2026-05-07 14:45 -32.40693 117.45384 28210 ft 472 kts 280°
2026-05-07 14:46 -32.40128 117.41507 27225 ft 483 kts 280°
2026-05-07 14:46 -32.39547 117.37590 26221 ft 482 kts 280°
2026-05-07 14:46 -32.38978 117.33684 25350 ft 481 kts 280°
2026-05-07 14:46 -32.38417 117.29815 24703 ft 473 kts 281°
2026-05-07 14:47 -32.37857 117.25978 24000 ft 469 kts 281°
2026-05-07 14:47 -32.37301 117.22188 23156 ft 465 kts 281°
2026-05-07 14:47 -32.36752 117.18468 22574 ft 462 kts 281°
2026-05-07 14:47 -32.36179 117.14637 22149 ft 481 kts 281°
2026-05-07 14:48 -32.35600 117.10739 21724 ft 478 kts 281°
2026-05-07 14:48 -32.35027 117.06903 21089 ft 469 kts 281°
2026-05-07 14:48 -32.34462 117.03131 20418 ft 462 kts 281°
2026-05-07 14:48 -32.33916 116.99453 19755 ft 456 kts 281°
2026-05-07 14:49 -32.33373 116.95779 19091 ft 451 kts 281°
2026-05-07 14:49 -32.32831 116.92135 18337 ft 446 kts 281°
2026-05-07 14:49 -32.32299 116.88531 17597 ft 444 kts 281°
2026-05-07 14:49 -32.31769 116.84963 16964 ft 440 kts 281°
2026-05-07 14:50 -32.31232 116.81413 16358 ft 436 kts 281°
2026-05-07 14:50 -32.30706 116.77912 15775 ft 431 kts 281°
2026-05-07 14:50 -32.30180 116.74427 15208 ft 427 kts 281°
2026-05-07 14:50 -32.29662 116.70993 14737 ft 422 kts 282°
2026-05-07 14:51 -32.29148 116.67597 14292 ft 416 kts 282°
2026-05-07 14:51 -32.28642 116.64257 13777 ft 411 kts 282°
2026-05-07 14:51 -32.28139 116.60981 13174 ft 409 kts 282°
2026-05-07 14:51 -32.27633 116.57677 12624 ft 405 kts 281°
2026-05-07 14:52 -32.27143 116.54453 12229 ft 391 kts 281°
2026-05-07 14:52 -32.26671 116.51347 11965 ft 376 kts 281°
2026-05-07 14:52 -32.26216 116.48368 11745 ft 361 kts 281°
2026-05-07 14:52 -32.25779 116.45518 11496 ft 344 kts 281°
2026-05-07 14:53 -32.25362 116.42805 11216 ft 327 kts 281°
2026-05-07 14:53 -32.24959 116.40218 10916 ft 314 kts 282°
2026-05-07 14:53 -32.24567 116.37722 10480 ft 307 kts 282°
2026-05-07 14:53 -32.24171 116.35245 9824 ft 307 kts 281°
2026-05-07 14:54 -32.23783 116.32782 9260 ft 303 kts 282°
2026-05-07 14:54 -32.23390 116.30371 8730 ft 300 kts 282°
2026-05-07 14:54 -32.23007 116.27978 8279 ft 294 kts 282°
2026-05-07 14:54 -32.22632 116.25619 7867 ft 291 kts 282°
2026-05-07 14:55 -32.22264 116.23291 7520 ft 287 kts 281°
2026-05-07 14:55 -32.21900 116.20966 7156 ft 288 kts 281°
2026-05-07 14:55 -32.21536 116.18634 6774 ft 290 kts 281°
2026-05-07 14:55 -32.21172 116.16290 6359 ft 290 kts 282°
2026-05-07 14:56 -32.20809 116.13962 5955 ft 287 kts 283°
2026-05-07 14:56 -32.20447 116.11642 5565 ft 288 kts 283°
2026-05-07 14:56 -32.20081 116.09310 5191 ft 289 kts 284°
2026-05-07 14:56 -32.19719 116.07002 4814 ft 290 kts 284°
2026-05-07 14:57 -32.19356 116.04666 4421 ft 288 kts 284°
2026-05-07 14:57 -32.18991 116.02350 4043 ft 287 kts 284°
2026-05-07 14:57 -32.18636 116.00080 3927 ft 273 kts 285°
2026-05-07 14:57 -32.18301 115.97939 3910 ft 256 kts 285°
2026-05-07 14:58 -32.17981 115.95920 3910 ft 248 kts 285°
2026-05-07 14:58 -32.17662 115.93927 3923 ft 247 kts 286°
2026-05-07 14:58 -32.17240 115.91982 3920 ft 240 kts 303°
2026-05-07 14:58 -32.16160 115.90617 3923 ft 222 kts 340°
2026-05-07 14:59 -32.14755 115.90267 3701 ft 201 kts 11°
2026-05-07 14:59 -32.13446 115.90587 3522 ft 185 kts 22°
2026-05-07 14:59 -32.12249 115.91035 3327 ft 177 kts 23°
2026-05-07 14:59 -32.11121 115.91444 3155 ft 164 kts 22°
2026-05-07 15:00 -32.10054 115.91802 2938 ft 154 kts 22°
2026-05-07 15:00 -32.09058 115.92105 2738 ft 141 kts 22°
2026-05-07 15:00 -32.08442 115.92288 2597 ft 134 kts 22°
2026-05-07 15:00 -32.07576 115.92543 2444 ft 120 kts 23°
2026-05-07 15:01 -32.06770 115.92781 2308 ft 119 kts 22°
2026-05-07 15:01 -32.05701 115.93096 2080 ft 120 kts 24°
2026-05-07 15:01 -32.05153 115.93256 1966 ft 120 kts 22°
2026-05-07 15:01 -32.04082 115.93570 1737 ft 120 kts 22°
2026-05-07 15:02 -32.03530 115.93732 1631 ft 122 kts 22°
2026-05-07 15:02 -32.02427 115.94055 1410 ft 125 kts 21°
2026-05-07 15:02 -32.01865 115.94219 1290 ft 126 kts 20°
2026-05-07 15:02 -32.01005 115.94476 1124 ft 128 kts 19°
2026-05-07 15:03 -32.00138 115.94739 971 ft 128 kts 18°
2026-05-07 15:03 -31.99272 115.94975 777 ft 129 kts 16°
2026-05-07 15:03 -31.98404 115.95225 608 ft 129 kts 18°
2026-05-07 15:03 -31.97538 115.95484 455 ft 128 kts 17°
2026-05-07 15:04 -31.96671 115.95734 274 ft 127 kts 17°
2026-05-07 15:04 -31.95819 115.95980 125 ft 126 kts 17°
2026-05-07 15:04 -31.94996 115.96228 74 ft 113 kts 15°
2026-05-07 15:04 -31.94425 115.96394 71 ft 54 kts 14°
2026-05-07 15:05 -31.94179 115.96462 70 ft 32 kts 14°
2026-05-07 15:05 -31.93955 115.96529 73 ft 34 kts 14°
2026-05-07 15:05 -31.93719 115.96597 71 ft 35 kts 14°
2026-05-07 15:05 -31.93534 115.96616 64 ft 26 kts 321°
2026-05-07 15:06 -31.93473 115.96477 64 ft 17 kts 296°
2026-05-07 15:06 -31.93463 115.96452 69 ft 0 kts 298°
2026-05-07 15:06 -31.93455 115.96434 68 ft 4 kts 298°
2026-05-07 15:06 -31.93436 115.96392 71 ft 7 kts 293°
2026-05-07 15:07 -31.93419 115.96346 68 ft 6 kts 285°
2026-05-07 15:07 -31.93417 115.96329 73 ft 0 kts 272°
2026-05-07 15:07 -31.93417 115.96318 66 ft 3 kts 271°
2026-05-07 15:07 -31.93412 115.96285 65 ft 6 kts 288°
2026-05-07 15:08 -31.93395 115.96231 72 ft 8 kts 290°
2026-05-07 15:08 -31.93383 115.96192 71 ft 1 kts 290°
2026-05-07 15:08 -31.93382 115.96190 64 ft 0 kts 290°